Weather History for Rochester, NH

Change the Weather History Date:

Wednesday, November 14, 2012

  Actual Average (KSFM) Record (KSFM)
Temperature  
Mean Temperature 37 °F -  
Max Temperature 46 °F 45 °F 64 °F (2011)
Min Temperature 28 °F 26 °F 10 °F (1996)
Degree Days  
Heating Degree Days 28    
Moisture  
Dew Point 22 °F    
Average Humidity 59    
Maximum Humidity 82    
Minimum Humidity 34    
Precipitation  
Precipitation 0.00 in - - ()
Sea Level Pressure  
Sea Level Pressure 30.49 in    
Wind  
Wind Speed 6 mph (North)    
Max Wind Speed 9 mph    
Max Gust Speed 21 mph    
Visibility 10 miles    
Events      
Averages and records for this station are not official NWS values.
T = Trace of Precipitation, MM = Missing Value Source: NWS Daily Summary

Daily Weather History Graph

Daily Weather History Graph

Search for Another Location

Airport:

Trip Planner

Search our weather history database for the weather conditions in past years. The results will help you decide how hot, cold, wet, or windy it might be!

Date:

Astronomy

Nov. 14, 2012 Rise Set
Actual Time 6:36 AM EST 4:19 PM EST
Civil Twilight 6:05 AM EST 4:50 PM EST
Nautical Twilight 5:30 AM EST 5:25 PM EST
Astronomical Twilight 4:57 AM EST 5:58 PM EST
Moon 7:23 AM EST (11/14) 5:03 PM EST (11/14)
Length of Visible Light 10h 45m
Length of Day
9h 43m
New Moon, 1% of the Moon is Illuminated
Nov 14
New Moon
Nov 20
First Quarter
Nov 28
Full
Dec 6
Last Quarter
Dec 13
New

Hourly Weather History & Observations

Time (EST) Temp. Windchill Dew Point Humidity Pressure Visibility Wind Dir Wind Speed Gust Speed Precip Events Conditions
12:51 AM 37.9 °F 35.5 °F 28.9 °F 70% 30.42 in 10.0 mi North 3.5 mph - N/A   Overcast
1:51 AM 37.9 °F 32.7 °F 24.1 °F 57% 30.43 in 10.0 mi NNE 6.9 mph - N/A   Overcast
2:51 AM 34.0 °F 29.8 °F 23.0 °F 64% 30.45 in 10.0 mi North 4.6 mph - N/A   Clear
3:51 AM 30.9 °F 26.2 °F 23.0 °F 72% 30.46 in 10.0 mi NNW 4.6 mph - N/A   Clear
4:51 AM 30.0 °F 23.2 °F 23.0 °F 75% 30.48 in 10.0 mi NNW 6.9 mph - N/A   Clear
5:51 AM 28.0 °F 21.7 °F 23.0 °F 81% 30.50 in 10.0 mi NNW 5.8 mph - N/A   Clear
6:51 AM 28.9 °F 21.1 °F 24.1 °F 82% 30.52 in 10.0 mi NW 8.1 mph - N/A   Clear
7:51 AM 33.1 °F 26.9 °F 24.1 °F 70% 30.53 in 10.0 mi NNW 6.9 mph - N/A   Clear
8:51 AM 39.0 °F 32.8 °F 21.9 °F 50% 30.54 in 10.0 mi North 9.2 mph - N/A   Clear
9:51 AM 42.1 °F 37.1 °F 23.0 °F 47% 30.54 in 10.0 mi NNE 8.1 mph 20.7 mph N/A   Clear
10:51 AM 42.1 °F 36.6 °F 21.9 °F 45% 30.52 in 10.0 mi NNE 9.2 mph - N/A   Clear
11:51 AM 44.1 °F 40.8 °F 23.0 °F 43% 30.50 in 10.0 mi Variable 5.8 mph - N/A   Clear
1:51 PM 46.0 °F 43.1 °F 19.9 °F 35% 30.47 in 10.0 mi Variable 5.8 mph - N/A   Clear
2:51 PM 45.0 °F 41.2 °F 18.0 °F 34% 30.47 in 10.0 mi Variable 6.9 mph - N/A   Clear
3:51 PM 43.0 °F 40.3 °F 19.0 °F 38% 30.47 in 10.0 mi North 4.6 mph - N/A   Clear
5:51 PM 37.0 °F 34.5 °F 19.9 °F 50% 30.50 in 10.0 mi North 3.5 mph - N/A   Clear
6:51 PM 34.0 °F 28.8 °F 19.9 °F 56% 30.51 in 10.0 mi NNW 5.8 mph - N/A   Clear
7:51 PM 32.0 °F 28.7 °F 21.0 °F 64% 30.51 in 10.0 mi North 3.5 mph - N/A   Clear
8:51 PM 30.9 °F 26.2 °F 21.0 °F 67% 30.52 in 10.0 mi North 4.6 mph - N/A   Clear
9:51 PM 33.1 °F 27.7 °F 21.9 °F 64% 30.51 in 10.0 mi NNW 5.8 mph - N/A   Clear
10:51 PM 32.0 °F 27.5 °F 21.9 °F 66% 30.50 in 10.0 mi North 4.6 mph - N/A   Clear
11:51 PM 30.9 °F 26.2 °F 23.0 °F 72% 30.51 in 10.0 mi NNW 4.6 mph - N/A   Clear